Overview Statistics Trail Chart Weather Telemetry Raw packets
 

This is the latest recevied weather packets stored in our database for station/object VA2RBQ-7. If no packets are shown the sender has not sent any weather packets the latest 10 day(s).

<< 11 12 13 14 15 16 17 >>
Time Temp. Humidity Pressure Rain* Wind** Luminosity Snow
1788478011 8.89° C 72% 1015.4 hPa 0 mm - - -
1788477709 8.33° C 72% 1015.4 hPa 0 mm - - -
1788477406 -17.78° C 72% 1015.4 hPa 0 mm - - -
1788477098 8.33° C 72% 1015.5 hPa 7.37 mm - - -
1788476796 8.33° C 72% 1015.5 hPa 7.37 mm - - -
1788476494 8.33° C 72% 1015.3 hPa 7.37 mm - - -
1788476190 8.33° C 72% 1015.3 hPa 7.37 mm - - -
1788475888 8.33° C 72% 1015.3 hPa 7.11 mm - - -
1788475585 8.33° C 72% 1015.3 hPa 7.11 mm - - -
1788475283 8.33° C 71% 1015.5 hPa 7.11 mm - - -
1788474988 8.89° C 71% 1015.5 hPa 7.11 mm - - -
1788474677 8.89° C 71% 1015.6 hPa 7.11 mm - - -
1788474375 8.89° C 71% 1015.9 hPa 7.11 mm - - -
1788474072 8.89° C 71% 1015.9 hPa 7.11 mm - - -
1788473770 8.89° C 71% 1015.8 hPa 6.86 mm - - -
1788473468 8.89° C 71% 1015.7 hPa 6.86 mm - - -
1788473164 8.89° C 71% 1015.8 hPa 6.86 mm - - -
1788472862 8.89° C 71% 1015.8 hPa 6.86 mm - - -
1788472559 8.89° C 72% 1015.6 hPa 6.86 mm - - -
1788472257 8.89° C 72% 1015.5 hPa 6.35 mm - - -
1788471955 8.89° C 72% 1015.4 hPa 6.1 mm - - -
1788471651 8.89° C 72% 1015.4 hPa 6.1 mm - - -
1788471349 8.89° C 72% 1015.5 hPa 6.1 mm - - -
1788471046 8.89° C 72% 1015.4 hPa 6.1 mm - - -
1788470744 8.89° C 72% 1015.3 hPa 5.59 mm - - -

* Rain since midnight (hover to see other rain measurements)
** Current wind speed in m/s (hover to see current wind gust speed)